contact:dominique.lefevre@mio.osupytheas.fr, maurice.libes@osupytheas.fr, didier.mallarino@osupytheas.fr
Project:EMSO http://www.emso-fr.org/EMSO-France
Depth: 2436.0 m
Title:EMSO Ligure Ouest : Data MII capteur MICROCAT
DateTime_Computer,Latitude,Longitude,Temperature,Conductivity,Pressure,DateTime_Instrument
DateTime_Computer,Latitude,Longitude,degC,S m-1,dbar,DateTime_Instrument
2021-02-22T00:02:44Z,42.805,6.029,13.2982,4.59986,2470.24,2021-2-22T02:03:48Z
2021-02-22T00:05:47Z,42.805,6.029,13.2983,4.59987,2470.217,2021-2-22T02:06:51Z
2021-02-22T00:08:50Z,42.805,6.029,13.2981,4.59986,2470.273,2021-2-22T02:09:54Z
2021-02-22T00:11:53Z,42.805,6.029,13.2983,4.59987,2470.25,2021-2-22T02:12:57Z
2021-02-22T00:14:56Z,42.805,6.029,13.2983,4.59987,2470.287,2021-2-22T02:16:01Z
2021-02-22T00:17:59Z,42.805,6.029,13.2982,4.59986,2470.25,2021-2-22T02:19:04Z
2021-02-22T00:21:02Z,42.805,6.029,13.2983,4.59986,2470.264,2021-2-22T02:22:07Z
2021-02-22T00:24:05Z,42.805,6.029,13.2980,4.59986,2470.25,2021-2-22T02:25:10Z
2021-02-22T00:27:09Z,42.805,6.029,13.2981,4.59986,2470.25,2021-2-22T02:28:13Z
2021-02-22T00:30:12Z,42.805,6.029,13.2980,4.59985,2470.273,2021-2-22T02:31:16Z
2021-02-22T00:33:15Z,42.805,6.029,13.2983,4.59986,2470.24,2021-2-22T02:34:19Z
2021-02-22T00:36:18Z,42.805,6.029,13.2979,4.59986,2470.273,2021-2-22T02:37:22Z
2021-02-22T00:39:21Z,42.805,6.029,13.2983,4.59986,2470.31,2021-2-22T02:40:26Z
2021-02-22T00:42:24Z,42.805,6.029,13.2982,4.59986,2470.227,2021-2-22T02:43:29Z
2021-02-22T00:45:27Z,42.805,6.029,13.2982,4.59986,2470.25,2021-2-22T02:46:32Z
2021-02-22T00:48:30Z,42.805,6.029,13.2982,4.59986,2470.273,2021-2-22T02:49:35Z
2021-02-22T00:51:34Z,42.805,6.029,13.2982,4.59986,2470.25,2021-2-22T02:52:38Z
2021-02-22T00:54:37Z,42.805,6.029,13.2982,4.59986,2470.273,2021-2-22T02:55:41Z
2021-02-22T00:57:40Z,42.805,6.029,13.2977,4.59986,2470.25,2021-2-22T02:58:44Z
2021-02-22T01:00:43Z,42.805,6.029,13.2982,4.59986,2470.287,2021-2-22T03:01:47Z
2021-02-22T01:03:46Z,42.805,6.029,13.2982,4.59986,2470.273,2021-2-22T03:04:51Z
2021-02-22T01:06:49Z,42.805,6.029,13.2983,4.59986,2470.25,2021-2-22T03:07:54Z
2021-02-22T01:09:52Z,42.805,6.029,13.2976,4.59986,2470.25,2021-2-22T03:10:57Z
2021-02-22T01:12:55Z,42.805,6.029,13.2980,4.59986,2470.287,2021-2-22T03:14:00Z
2021-02-22T01:15:59Z,42.805,6.029,13.2983,4.59985,2470.25,2021-2-22T03:17:03Z
2021-02-22T01:19:02Z,42.805,6.029,13.2985,4.59986,2470.264,2021-2-22T03:20:06Z
2021-02-22T01:22:05Z,42.805,6.029,13.2981,4.59985,2470.273,2021-2-22T03:23:09Z
2021-02-22T01:25:08Z,42.805,6.029,13.2981,4.59986,2470.26,2021-2-22T03:26:12Z
2021-02-22T01:28:11Z,42.805,6.029,13.2984,4.59987,2470.287,2021-2-22T03:29:16Z
2021-02-22T01:31:14Z,42.805,6.029,13.2984,4.59986,2470.287,2021-2-22T03:32:19Z
2021-02-22T01:34:17Z,42.805,6.029,13.2982,4.59986,2470.287,2021-2-22T03:35:22Z
2021-02-22T01:37:20Z,42.805,6.029,13.2979,4.59986,2470.287,2021-2-22T03:38:25Z
2021-02-22T01:40:24Z,42.805,6.029,13.2981,4.59986,2470.297,2021-2-22T03:41:28Z
2021-02-22T01:43:27Z,42.805,6.029,13.2979,4.59986,2470.31,2021-2-22T03:44:31Z
2021-02-22T01:46:30Z,42.805,6.029,13.2982,4.59986,2470.297,2021-2-22T03:47:34Z
2021-02-22T01:49:33Z,42.805,6.029,13.2982,4.59985,2470.273,2021-2-22T03:50:37Z
2021-02-22T01:52:36Z,42.805,6.029,13.2983,4.59986,2470.25,2021-2-22T03:53:41Z
2021-02-22T01:55:39Z,42.805,6.029,13.2983,4.59986,2470.287,2021-2-22T03:56:44Z
2021-02-22T01:58:42Z,42.805,6.029,13.2985,4.59987,2470.273,2021-2-22T03:59:47Z
2021-02-22T02:01:45Z,42.805,6.029,13.2982,4.59986,2470.31,2021-2-22T04:02:50Z
2021-02-22T02:04:49Z,42.805,6.029,13.2982,4.59986,2470.297,2021-2-22T04:05:53Z
2021-02-22T02:07:52Z,42.805,6.029,13.2980,4.59986,2470.273,2021-2-22T04:08:56Z
2021-02-22T02:10:55Z,42.805,6.029,13.2982,4.59987,2470.32,2021-2-22T04:11:59Z
2021-02-22T02:13:58Z,42.805,6.029,13.2983,4.59986,2470.273,2021-2-22T04:15:02Z
2021-02-22T02:17:01Z,42.805,6.029,13.2982,4.59986,2470.297,2021-2-22T04:18:06Z
2021-02-22T02:20:04Z,42.805,6.029,13.2979,4.59986,2470.297,2021-2-22T04:21:09Z
2021-02-22T02:23:07Z,42.805,6.029,13.2979,4.59986,2470.297,2021-2-22T04:24:12Z
2021-02-22T02:26:10Z,42.805,6.029,13.2982,4.59986,2470.287,2021-2-22T04:27:15Z
2021-02-22T02:29:14Z,42.805,6.029,13.2983,4.59986,2470.273,2021-2-22T04:30:18Z
2021-02-22T02:32:17Z,42.805,6.029,13.2979,4.59986,2470.31,2021-2-22T04:33:21Z
2021-02-22T02:35:20Z,42.805,6.029,13.2981,4.59986,2470.297,2021-2-22T04:36:24Z
2021-02-22T02:38:23Z,42.805,6.029,13.2981,4.59987,2470.31,2021-2-22T04:39:27Z
2021-02-22T02:41:26Z,42.805,6.029,13.2982,4.59988,2470.273,2021-2-22T04:42:30Z
2021-02-22T02:44:29Z,42.805,6.029,13.2983,4.59986,2470.32,2021-2-22T04:45:34Z
2021-02-22T02:47:32Z,42.805,6.029,13.2981,4.59985,2470.32,2021-2-22T04:48:37Z
2021-02-22T02:50:35Z,42.805,6.029,13.2983,4.59986,2470.297,2021-2-22T04:51:40Z
2021-02-22T02:53:39Z,42.805,6.029,13.2983,4.59985,2470.32,2021-2-22T04:54:43Z
2021-02-22T02:56:42Z,42.805,6.029,13.2981,4.59986,2470.297,2021-2-22T04:57:46Z
2021-02-22T02:59:45Z,42.805,6.029,13.2978,4.59985,2470.31,2021-2-22T05:00:49Z
2021-02-22T03:02:48Z,42.805,6.029,13.2984,4.59986,2470.297,2021-2-22T05:03:52Z
2021-02-22T03:05:51Z,42.805,6.029,13.2981,4.59986,2470.334,2021-2-22T05:06:55Z
2021-02-22T03:08:54Z,42.805,6.029,13.2983,4.59986,2470.297,2021-2-22T05:09:59Z
2021-02-22T03:11:57Z,42.805,6.029,13.2982,4.59986,2470.32,2021-2-22T05:13:02Z
2021-02-22T03:15:00Z,42.805,6.029,13.2983,4.59985,2470.31,2021-2-22T05:16:05Z
2021-02-22T03:18:03Z,42.805,6.029,13.2982,4.59986,2470.297,2021-2-22T05:19:08Z
2021-02-22T03:21:07Z,42.805,6.029,13.2980,4.59986,2470.297,2021-2-22T05:22:11Z
2021-02-22T03:24:10Z,42.805,6.029,13.2980,4.59986,2470.297,2021-2-22T05:25:14Z
2021-02-22T03:27:13Z,42.805,6.029,13.2982,4.59986,2470.32,2021-2-22T05:28:17Z
2021-02-22T03:30:16Z,42.805,6.029,13.2986,4.59985,2470.31,2021-2-22T05:31:20Z
2021-02-22T03:33:19Z,42.805,6.029,13.2983,4.59986,2470.297,2021-2-22T05:34:24Z
2021-02-22T03:36:22Z,42.805,6.029,13.2983,4.59986,2470.343,2021-2-22T05:37:27Z
2021-02-22T03:39:25Z,42.805,6.029,13.2979,4.59986,2470.334,2021-2-22T05:40:30Z
2021-02-22T03:42:28Z,42.805,6.029,13.2979,4.59986,2470.334,2021-2-22T05:43:33Z
2021-02-22T03:45:32Z,42.805,6.029,13.2983,4.59988,2470.32,2021-2-22T05:46:36Z
2021-02-22T03:48:35Z,42.805,6.029,13.2981,4.59986,2470.297,2021-2-22T05:49:39Z
2021-02-22T03:51:38Z,42.805,6.029,13.2985,4.59986,2470.32,2021-2-22T05:52:42Z
2021-02-22T03:54:41Z,42.805,6.029,13.2979,4.59986,2470.343,2021-2-22T05:55:45Z
2021-02-22T03:57:44Z,42.805,6.029,13.2979,4.59986,2470.32,2021-2-22T05:58:49Z
2021-02-22T04:00:47Z,42.805,6.029,13.2981,4.59986,2470.343,2021-2-22T06:01:52Z
2021-02-22T04:03:50Z,42.805,6.029,13.2981,4.59986,2470.297,2021-2-22T06:04:55Z
2021-02-22T04:06:53Z,42.805,6.029,13.2982,4.59986,2470.32,2021-2-22T06:07:58Z
2021-02-22T04:09:57Z,42.805,6.029,13.2979,4.59986,2470.32,2021-2-22T06:11:01Z
2021-02-22T04:13:00Z,42.805,6.029,13.2983,4.59987,2470.343,2021-2-22T06:14:04Z
2021-02-22T04:16:03Z,42.805,6.029,13.2981,4.59986,2470.343,2021-2-22T06:17:07Z
2021-02-22T04:19:06Z,42.805,6.029,13.2979,4.59986,2470.32,2021-2-22T06:20:10Z
2021-02-22T04:22:09Z,42.805,6.029,13.2985,4.59986,2470.32,2021-2-22T06:23:14Z
2021-02-22T04:25:12Z,42.805,6.029,13.2982,4.59986,2470.297,2021-2-22T06:26:17Z
2021-02-22T04:28:15Z,42.805,6.029,13.2979,4.59986,2470.32,2021-2-22T06:29:20Z
2021-02-22T04:31:18Z,42.805,6.029,13.2983,4.59987,2470.334,2021-2-22T06:32:23Z
2021-02-22T04:34:22Z,42.805,6.029,13.2986,4.59986,2470.31,2021-2-22T06:35:26Z
2021-02-22T04:37:25Z,42.805,6.029,13.2979,4.59986,2470.32,2021-2-22T06:38:29Z
2021-02-22T04:40:28Z,42.805,6.029,13.2982,4.59985,2470.334,2021-2-22T06:41:32Z
2021-02-22T04:43:31Z,42.805,6.029,13.2980,4.59986,2470.357,2021-2-22T06:44:35Z
2021-02-22T04:46:34Z,42.805,6.029,13.2982,4.59987,2470.25,2021-2-22T06:47:39Z
2021-02-22T04:49:37Z,42.805,6.029,13.2980,4.59986,2470.32,2021-2-22T06:50:42Z
2021-02-22T04:52:40Z,42.805,6.029,13.2985,4.59985,2470.31,2021-2-22T06:53:45Z
2021-02-22T04:55:43Z,42.805,6.029,13.2983,4.59987,2470.32,2021-2-22T06:56:48Z
2021-02-22T04:58:47Z,42.805,6.029,13.2982,4.59986,2470.32,2021-2-22T06:59:51Z
2021-02-22T05:01:50Z,42.805,6.029,13.2984,4.59986,2470.31,2021-2-22T07:02:54Z
2021-02-22T05:04:53Z,42.805,6.029,13.2986,4.59986,2470.32,2021-2-22T07:05:57Z
2021-02-22T05:07:56Z,42.805,6.029,13.2982,4.59987,2470.283,2021-2-22T07:09:00Z
2021-02-22T05:10:59Z,42.805,6.029,13.2980,4.59986,2470.297,2021-2-22T07:12:04Z
2021-02-22T05:14:02Z,42.805,6.029,13.2983,4.59986,2470.297,2021-2-22T07:15:07Z
2021-02-22T05:17:05Z,42.805,6.029,13.2982,4.59986,2470.32,2021-2-22T07:18:10Z
2021-02-22T05:20:08Z,42.805,6.029,13.2983,4.59986,2470.31,2021-2-22T07:21:13Z
2021-02-22T05:23:12Z,42.805,6.029,13.2982,4.59986,2470.343,2021-2-22T07:24:16Z
2021-02-22T05:26:15Z,42.805,6.029,13.2979,4.59986,2470.31,2021-2-22T07:27:19Z
2021-02-22T05:29:18Z,42.805,6.029,13.2985,4.59986,2470.297,2021-2-22T07:30:22Z
2021-02-22T05:32:21Z,42.805,6.029,13.2980,4.59986,2470.297,2021-2-22T07:33:25Z
2021-02-22T05:35:24Z,42.805,6.029,13.2983,4.59987,2470.297,2021-2-22T07:36:29Z
2021-02-22T05:38:27Z,42.805,6.029,13.2982,4.59986,2470.287,2021-2-22T07:39:32Z
2021-02-22T05:41:30Z,42.805,6.029,13.2979,4.59986,2470.334,2021-2-22T07:42:35Z
2021-02-22T05:44:33Z,42.805,6.029,13.2983,4.59986,2470.297,2021-2-22T07:45:38Z
2021-02-22T05:47:37Z,42.805,6.029,13.2984,4.59986,2470.297,2021-2-22T07:48:41Z
2021-02-22T05:50:40Z,42.805,6.029,13.2982,4.59986,2470.297,2021-2-22T07:51:44Z
2021-02-22T05:53:43Z,42.805,6.029,13.2982,4.59986,2470.32,2021-2-22T07:54:47Z
2021-02-22T05:56:46Z,42.805,6.029,13.2982,4.59986,2470.31,2021-2-22T07:57:50Z
2021-02-22T05:59:49Z,42.805,6.029,13.2986,4.59986,2470.273,2021-2-22T08:00:54Z
2021-02-22T06:02:52Z,42.805,6.029,13.2981,4.59986,2470.26,2021-2-22T08:03:57Z
2021-02-22T06:05:55Z,42.805,6.029,13.2983,4.59986,2470.273,2021-2-22T08:07:00Z
2021-02-22T06:08:58Z,42.805,6.029,13.2982,4.59986,2470.297,2021-2-22T08:10:03Z
2021-02-22T06:12:02Z,42.805,6.029,13.2985,4.59986,2470.297,2021-2-22T08:13:06Z
2021-02-22T06:15:05Z,42.805,6.029,13.2983,4.59986,2470.273,2021-2-22T08:16:09Z
2021-02-22T06:18:08Z,42.805,6.029,13.2982,4.59986,2470.273,2021-2-22T08:19:12Z
2021-02-22T06:21:11Z,42.805,6.029,13.2983,4.59986,2470.297,2021-2-22T08:22:15Z
2021-02-22T06:24:14Z,42.805,6.029,13.2986,4.59987,2470.31,2021-2-22T08:25:19Z
2021-02-22T06:27:17Z,42.805,6.029,13.2980,4.59986,2470.297,2021-2-22T08:28:22Z
2021-02-22T06:30:20Z,42.805,6.029,13.2983,4.59986,2470.297,2021-2-22T08:31:25Z
2021-02-22T06:33:23Z,42.805,6.029,13.2982,4.59986,2470.273,2021-2-22T08:34:28Z
2021-02-22T06:36:27Z,42.805,6.029,13.2983,4.59987,2470.273,2021-2-22T08:37:31Z
2021-02-22T06:39:30Z,42.805,6.029,13.2983,4.59986,2470.32,2021-2-22T08:40:34Z
2021-02-22T06:42:33Z,42.805,6.029,13.2981,4.59986,2470.287,2021-2-22T08:43:37Z
2021-02-22T06:45:36Z,42.805,6.029,13.2982,4.59986,2470.297,2021-2-22T08:46:40Z
2021-02-22T06:48:39Z,42.805,6.029,13.2977,4.59986,2470.297,2021-2-22T08:49:43Z
2021-02-22T06:51:42Z,42.805,6.029,13.2983,4.59986,2470.32,2021-2-22T08:52:47Z
2021-02-22T06:54:45Z,42.805,6.029,13.2981,4.59986,2470.273,2021-2-22T08:55:50Z
2021-02-22T06:57:48Z,42.805,6.029,13.2981,4.59986,2470.273,2021-2-22T08:58:53Z
2021-02-22T07:00:52Z,42.805,6.029,13.2983,4.59986,2470.32,2021-2-22T09:01:56Z
2021-02-22T07:03:55Z,42.805,6.029,13.2982,4.59986,2470.32,2021-2-22T09:04:59Z
2021-02-22T07:06:58Z,42.805,6.029,13.2984,4.59986,2470.297,2021-2-22T09:08:02Z
2021-02-22T07:10:01Z,42.805,6.029,13.2980,4.59986,2470.31,2021-2-22T09:11:05Z
2021-02-22T07:13:04Z,42.805,6.029,13.2983,4.59986,2470.264,2021-2-22T09:14:08Z
2021-02-22T07:16:07Z,42.805,6.029,13.2983,4.59985,2470.31,2021-2-22T09:17:12Z
2021-02-22T07:19:10Z,42.805,6.029,13.2981,4.59985,2470.287,2021-2-22T09:20:15Z
2021-02-22T07:22:13Z,42.805,6.029,13.2983,4.59985,2470.297,2021-2-22T09:23:18Z
2021-02-22T07:25:17Z,42.805,6.029,13.2979,4.59986,2470.273,2021-2-22T09:26:21Z
2021-02-22T07:28:20Z,42.805,6.029,13.2983,4.59986,2470.264,2021-2-22T09:29:24Z
2021-02-22T07:31:23Z,42.805,6.029,13.2983,4.59988,2470.297,2021-2-22T09:32:27Z
2021-02-22T07:34:26Z,42.805,6.029,13.2986,4.59986,2470.31,2021-2-22T09:35:30Z
2021-02-22T07:37:29Z,42.805,6.029,13.2983,4.59986,2470.31,2021-2-22T09:38:33Z
2021-02-22T07:40:32Z,42.805,6.029,13.2979,4.59986,2470.25,2021-2-22T09:41:37Z
2021-02-22T07:43:35Z,42.805,6.029,13.2982,4.59986,2470.297,2021-2-22T09:44:40Z
2021-02-22T07:46:38Z,42.805,6.029,13.2983,4.59986,2470.273,2021-2-22T09:47:43Z
2021-02-22T07:49:41Z,42.805,6.029,13.2980,4.59986,2470.25,2021-2-22T09:50:46Z
2021-02-22T07:52:45Z,42.805,6.029,13.2988,4.59986,2470.25,2021-2-22T09:53:49Z
2021-02-22T07:55:48Z,42.805,6.029,13.2984,4.59986,2470.25,2021-2-22T09:56:52Z
2021-02-22T07:58:51Z,42.805,6.029,13.2978,4.59988,2470.273,2021-2-22T09:59:55Z
2021-02-22T08:01:54Z,42.805,6.029,13.2983,4.59985,2470.273,2021-2-22T10:02:58Z
2021-02-22T08:04:57Z,42.805,6.029,13.2982,4.59986,2470.31,2021-2-22T10:06:02Z
2021-02-22T08:08:00Z,42.805,6.029,13.2982,4.59986,2470.287,2021-2-22T10:09:05Z
2021-02-22T08:11:03Z,42.805,6.029,13.2982,4.59986,2470.31,2021-2-22T10:12:08Z
2021-02-22T08:14:07Z,42.805,6.029,13.2981,4.59986,2470.25,2021-2-22T10:15:11Z
2021-02-22T08:17:10Z,42.805,6.029,13.2979,4.59986,2470.25,2021-2-22T10:18:14Z
2021-02-22T08:20:13Z,42.805,6.029,13.2983,4.59986,2470.227,2021-2-22T10:21:17Z
2021-02-22T08:23:16Z,42.805,6.029,13.2982,4.59986,2470.287,2021-2-22T10:24:20Z
2021-02-22T08:26:19Z,42.805,6.029,13.2980,4.59986,2470.26,2021-2-22T10:27:23Z
2021-02-22T08:29:22Z,42.805,6.029,13.2983,4.59986,2470.287,2021-2-22T10:30:27Z
2021-02-22T08:32:25Z,42.805,6.029,13.2982,4.59986,2470.273,2021-2-22T10:33:30Z
2021-02-22T08:35:28Z,42.805,6.029,13.2987,4.59986,2470.273,2021-2-22T10:36:33Z
2021-02-22T08:38:32Z,42.805,6.029,13.2982,4.59986,2470.287,2021-2-22T10:39:36Z
2021-02-22T08:41:35Z,42.805,6.029,13.2983,4.59985,2470.287,2021-2-22T10:42:39Z
2021-02-22T08:44:38Z,42.805,6.029,13.2982,4.59986,2470.25,2021-2-22T10:45:42Z
2021-02-22T08:47:41Z,42.805,6.029,13.2982,4.59986,2470.227,2021-2-22T10:48:45Z
2021-02-22T08:50:44Z,42.805,6.029,13.2983,4.59986,2470.25,2021-2-22T10:51:49Z
2021-02-22T08:53:47Z,42.805,6.029,13.2983,4.59986,2470.24,2021-2-22T10:54:52Z
2021-02-22T08:56:50Z,42.805,6.029,13.2986,4.59986,2470.227,2021-2-22T10:57:55Z
2021-02-22T08:59:53Z,42.805,6.029,13.2979,4.59986,2470.25,2021-2-22T11:00:58Z
2021-02-22T09:02:57Z,42.805,6.029,13.2982,4.59986,2470.25,2021-2-22T11:04:01Z
2021-02-22T09:06:00Z,42.805,6.029,13.2982,4.59986,2470.203,2021-2-22T11:07:04Z
2021-02-22T09:09:03Z,42.805,6.029,13.2979,4.59987,2470.227,2021-2-22T11:10:07Z
2021-02-22T09:12:06Z,42.805,6.029,13.2983,4.59986,2470.217,2021-2-22T11:13:10Z
2021-02-22T09:15:09Z,42.805,6.029,13.2982,4.59986,2470.227,2021-2-22T11:16:14Z
2021-02-22T09:18:12Z,42.805,6.029,13.2982,4.59986,2470.227,2021-2-22T11:19:17Z
2021-02-22T09:21:15Z,42.805,6.029,13.2979,4.59986,2470.24,2021-2-22T11:22:20Z
2021-02-22T09:24:18Z,42.805,6.029,13.2982,4.59986,2470.25,2021-2-22T11:25:23Z
2021-02-22T09:27:22Z,42.805,6.029,13.2981,4.59986,2470.227,2021-2-22T11:28:26Z
2021-02-22T09:30:25Z,42.805,6.029,13.2987,4.59986,2470.24,2021-2-22T11:31:29Z
2021-02-22T09:33:28Z,42.805,6.029,13.2983,4.59986,2470.227,2021-2-22T11:34:32Z
2021-02-22T09:36:31Z,42.805,6.029,13.2981,4.59986,2470.203,2021-2-22T11:37:35Z
2021-02-22T09:39:34Z,42.805,6.029,13.2986,4.59986,2470.217,2021-2-22T11:40:39Z
2021-02-22T09:42:37Z,42.805,6.029,13.2980,4.59986,2470.264,2021-2-22T11:43:42Z
2021-02-22T09:45:40Z,42.805,6.029,13.2979,4.59986,2470.217,2021-2-22T11:46:45Z
2021-02-22T09:48:44Z,42.805,6.029,13.2982,4.59985,2470.24,2021-2-22T11:49:48Z
2021-02-22T09:51:47Z,42.805,6.029,13.2979,4.59986,2470.217,2021-2-22T11:52:51Z
2021-02-22T09:54:50Z,42.805,6.029,13.2980,4.59986,2470.203,2021-2-22T11:55:54Z
2021-02-22T09:57:53Z,42.805,6.029,13.2978,4.59986,2470.217,2021-2-22T11:58:57Z
2021-02-22T10:00:56Z,42.805,6.029,13.2983,4.59986,2470.203,2021-2-22T12:02:00Z
2021-02-22T10:03:59Z,42.805,6.029,13.2982,4.59986,2470.194,2021-2-22T12:05:04Z
2021-02-22T10:07:02Z,42.805,6.029,13.2985,4.59986,2470.217,2021-2-22T12:08:07Z
2021-02-22T10:10:05Z,42.805,6.029,13.2979,4.59986,2470.203,2021-2-22T12:11:10Z
2021-02-22T10:13:08Z,42.805,6.029,13.2982,4.59986,2470.18,2021-2-22T12:14:13Z
2021-02-22T10:16:12Z,42.805,6.029,13.2983,4.59986,2470.171,2021-2-22T12:17:16Z
2021-02-22T10:19:15Z,42.805,6.029,13.2982,4.59988,2470.24,2021-2-22T12:20:19Z
2021-02-22T10:22:18Z,42.805,6.029,13.2983,4.59986,2470.24,2021-2-22T12:23:22Z
2021-02-22T10:25:21Z,42.805,6.029,13.2981,4.59986,2470.217,2021-2-22T12:26:25Z
2021-02-22T10:28:24Z,42.805,6.029,13.2983,4.59986,2470.25,2021-2-22T12:29:29Z
2021-02-22T10:31:27Z,42.805,6.029,13.2983,4.59986,2470.203,2021-2-22T12:32:32Z
2021-02-22T10:34:30Z,42.805,6.029,13.2984,4.59986,2470.203,2021-2-22T12:35:35Z
2021-02-22T10:37:34Z,42.805,6.029,13.2982,4.59987,2470.227,2021-2-22T12:38:38Z
2021-02-22T10:40:37Z,42.805,6.029,13.2979,4.59986,2470.203,2021-2-22T12:41:41Z
2021-02-22T10:43:40Z,42.805,6.029,13.2985,4.59986,2470.25,2021-2-22T12:44:44Z
2021-02-22T10:46:43Z,42.805,6.029,13.2982,4.59986,2470.227,2021-2-22T12:47:47Z
2021-02-22T10:49:46Z,42.805,6.029,13.2982,4.59986,2470.227,2021-2-22T12:50:51Z
2021-02-22T10:52:49Z,42.805,6.029,13.2981,4.59986,2470.18,2021-2-22T12:53:54Z
2021-02-22T10:55:52Z,42.805,6.029,13.2982,4.59985,2470.203,2021-2-22T12:56:57Z
2021-02-22T10:58:55Z,42.805,6.029,13.2983,4.59986,2470.18,2021-2-22T13:00:00Z
2021-02-22T11:01:59Z,42.805,6.029,13.2984,4.59986,2470.203,2021-2-22T13:03:03Z
2021-02-22T11:05:02Z,42.805,6.029,13.2980,4.59986,2470.203,2021-2-22T13:06:06Z
2021-02-22T11:08:05Z,42.805,6.029,13.2982,4.59986,2470.156,2021-2-22T13:09:09Z
2021-02-22T11:11:08Z,42.805,6.029,13.2982,4.59986,2470.156,2021-2-22T13:12:12Z
2021-02-22T11:14:11Z,42.805,6.029,13.2982,4.59986,2470.217,2021-2-22T13:15:15Z
2021-02-22T11:17:14Z,42.805,6.029,13.2981,4.59987,2470.227,2021-2-22T13:18:19Z
2021-02-22T11:20:17Z,42.805,6.029,13.2982,4.59986,2470.203,2021-2-22T13:21:22Z
2021-02-22T11:23:20Z,42.805,6.029,13.2982,4.59986,2470.194,2021-2-22T13:24:25Z
2021-02-22T11:26:24Z,42.805,6.029,13.2983,4.59986,2470.156,2021-2-22T13:27:28Z
2021-02-22T11:29:27Z,42.805,6.029,13.2979,4.59986,2470.156,2021-2-22T13:30:31Z
2021-02-22T11:32:30Z,42.805,6.029,13.2984,4.59986,2470.194,2021-2-22T13:33:34Z
2021-02-22T11:35:33Z,42.805,6.029,13.2982,4.59985,2470.217,2021-2-22T13:36:37Z
2021-02-22T11:38:36Z,42.805,6.029,13.2982,4.59986,2470.203,2021-2-22T13:39:41Z
2021-02-22T11:41:39Z,42.805,6.029,13.2985,4.59986,2470.194,2021-2-22T13:42:44Z
2021-02-22T11:44:42Z,42.805,6.029,13.2984,4.59987,2470.18,2021-2-22T13:45:47Z
2021-02-22T11:47:45Z,42.805,6.029,13.2982,4.59986,2470.194,2021-2-22T13:48:50Z
2021-02-22T11:50:49Z,42.805,6.029,13.2980,4.59986,2470.203,2021-2-22T13:51:53Z
2021-02-22T11:53:52Z,42.805,6.029,13.2980,4.59986,2470.203,2021-2-22T13:54:56Z
2021-02-22T11:56:55Z,42.805,6.029,13.2982,4.59985,2470.18,2021-2-22T13:57:59Z
2021-02-22T11:59:58Z,42.805,6.029,13.2980,4.59988,2470.203,2021-2-22T14:01:02Z
2021-02-22T12:03:01Z,42.805,6.029,13.2982,4.59986,2470.217,2021-2-22T14:04:06Z
2021-02-22T12:06:04Z,42.805,6.029,13.2985,4.59985,2470.194,2021-2-22T14:07:09Z
2021-02-22T12:09:07Z,42.805,6.029,13.2983,4.59986,2470.171,2021-2-22T14:10:12Z
2021-02-22T12:12:10Z,42.805,6.029,13.2983,4.59986,2470.18,2021-2-22T14:13:15Z
2021-02-22T12:15:14Z,42.805,6.029,13.2979,4.59986,2470.203,2021-2-22T14:16:18Z
2021-02-22T12:18:17Z,42.805,6.029,13.2984,4.59986,2470.194,2021-2-22T14:19:21Z
2021-02-22T12:21:20Z,42.805,6.029,13.2982,4.59985,2470.147,2021-2-22T14:22:24Z
2021-02-22T12:24:23Z,42.805,6.029,13.2985,4.59986,2470.18,2021-2-22T14:25:27Z
2021-02-22T12:27:26Z,42.805,6.029,13.2981,4.59985,2470.217,2021-2-22T14:28:31Z
2021-02-22T12:30:29Z,42.805,6.029,13.2982,4.59985,2470.203,2021-2-22T14:31:34Z
2021-02-22T12:33:32Z,42.805,6.029,13.2983,4.59986,2470.18,2021-2-22T14:34:37Z
2021-02-22T12:36:36Z,42.805,6.029,13.2983,4.59985,2470.203,2021-2-22T14:37:40Z
2021-02-22T12:39:39Z,42.805,6.029,13.2982,4.59986,2470.18,2021-2-22T14:40:43Z
2021-02-22T12:42:42Z,42.805,6.029,13.2983,4.59986,2470.203,2021-2-22T14:43:46Z
2021-02-22T12:45:45Z,42.805,6.029,13.2982,4.59986,2470.217,2021-2-22T14:46:49Z
2021-02-22T12:48:48Z,42.805,6.029,13.2983,4.59986,2470.24,2021-2-22T14:49:53Z
2021-02-22T12:51:51Z,42.805,6.029,13.2983,4.59986,2470.18,2021-2-22T14:52:56Z
2021-02-22T12:54:54Z,42.805,6.029,13.2983,4.59985,2470.217,2021-2-22T14:55:59Z
2021-02-22T12:57:57Z,42.805,6.029,13.2982,4.59986,2470.18,2021-2-22T14:59:02Z
2021-02-22T13:01:01Z,42.805,6.029,13.2980,4.59986,2470.18,2021-2-22T15:02:05Z
2021-02-22T13:04:04Z,42.805,6.029,13.2982,4.59986,2470.203,2021-2-22T15:05:08Z
2021-02-22T13:07:07Z,42.805,6.029,13.2983,4.59986,2470.18,2021-2-22T15:08:11Z
2021-02-22T13:10:10Z,42.805,6.029,13.2983,4.59986,2470.203,2021-2-22T15:11:14Z
2021-02-22T13:13:13Z,42.805,6.029,13.2981,4.59985,2470.203,2021-2-22T15:14:18Z
2021-02-22T13:16:16Z,42.805,6.029,13.2979,4.59985,2470.203,2021-2-22T15:17:21Z
2021-02-22T13:19:19Z,42.805,6.029,13.2976,4.59986,2470.217,2021-2-22T15:20:24Z
2021-02-22T13:22:22Z,42.805,6.029,13.2982,4.59986,2470.18,2021-2-22T15:23:27Z
2021-02-22T13:25:26Z,42.805,6.029,13.2982,4.59986,2470.227,2021-2-22T15:26:30Z
2021-02-22T13:28:29Z,42.805,6.029,13.2980,4.59986,2470.227,2021-2-22T15:29:33Z
2021-02-22T13:31:32Z,42.805,6.029,13.2983,4.59986,2470.203,2021-2-22T15:32:36Z
2021-02-22T13:34:35Z,42.805,6.029,13.2981,4.59986,2470.203,2021-2-22T15:35:39Z
2021-02-22T13:37:38Z,42.805,6.029,13.2979,4.59987,2470.203,2021-2-22T15:38:43Z
2021-02-22T13:40:41Z,42.805,6.029,13.2980,4.59985,2470.227,2021-2-22T15:41:46Z
2021-02-22T13:43:44Z,42.805,6.029,13.2983,4.59985,2470.194,2021-2-22T15:44:49Z
2021-02-22T13:46:47Z,42.805,6.029,13.2982,4.59986,2470.203,2021-2-22T15:47:52Z
2021-02-22T13:49:51Z,42.805,6.029,13.2982,4.59986,2470.18,2021-2-22T15:50:55Z
2021-02-22T13:52:54Z,42.805,6.029,13.2983,4.59986,2470.24,2021-2-22T15:53:58Z
2021-02-22T13:55:57Z,42.805,6.029,13.2983,4.59986,2470.217,2021-2-22T15:57:01Z
2021-02-22T13:59:00Z,42.805,6.029,13.2986,4.59986,2470.18,2021-2-22T16:00:04Z
2021-02-22T14:02:03Z,42.805,6.029,13.2981,4.59987,2470.227,2021-2-22T16:03:08Z
2021-02-22T14:05:06Z,42.805,6.029,13.2984,4.59988,2470.227,2021-2-22T16:06:11Z
2021-02-22T14:08:09Z,42.805,6.029,13.2980,4.59986,2470.227,2021-2-22T16:09:14Z
2021-02-22T14:11:12Z,42.805,6.029,13.2985,4.59986,2470.203,2021-2-22T16:12:17Z
2021-02-22T14:14:16Z,42.805,6.029,13.2981,4.59986,2470.227,2021-2-22T16:15:20Z
2021-02-22T14:17:19Z,42.805,6.029,13.2983,4.59986,2470.227,2021-2-22T16:18:23Z
2021-02-22T14:20:22Z,42.805,6.029,13.2979,4.59986,2470.25,2021-2-22T16:21:26Z
2021-02-22T14:23:25Z,42.805,6.029,13.2982,4.59986,2470.203,2021-2-22T16:24:29Z
2021-02-22T14:26:28Z,42.805,6.029,13.2983,4.59986,2470.203,2021-2-22T16:27:33Z
2021-02-22T14:29:31Z,42.805,6.029,13.2982,4.59986,2470.203,2021-2-22T16:30:36Z
2021-02-22T14:32:34Z,42.805,6.029,13.2980,4.59987,2470.264,2021-2-22T16:33:39Z
2021-02-22T14:35:37Z,42.805,6.029,13.2984,4.59987,2470.203,2021-2-22T16:36:42Z
2021-02-22T14:38:41Z,42.805,6.029,13.2983,4.59988,2470.227,2021-2-22T16:39:45Z
2021-02-22T14:41:44Z,42.805,6.029,13.2982,4.59986,2470.24,2021-2-22T16:42:48Z
2021-02-22T14:44:47Z,42.805,6.029,13.2984,4.59987,2470.24,2021-2-22T16:45:51Z
2021-02-22T14:47:50Z,42.805,6.029,13.2981,4.59987,2470.203,2021-2-22T16:48:54Z
2021-02-22T14:50:53Z,42.805,6.029,13.2985,4.59986,2470.203,2021-2-22T16:51:58Z
2021-02-22T14:53:56Z,42.805,6.029,13.2982,4.59986,2470.217,2021-2-22T16:55:01Z
2021-02-22T14:56:59Z,42.805,6.029,13.2982,4.59987,2470.18,2021-2-22T16:58:04Z
2021-02-22T15:00:03Z,42.805,6.029,13.2982,4.59986,2470.227,2021-2-22T17:01:07Z
2021-02-22T15:03:06Z,42.805,6.029,13.2983,4.59987,2470.227,2021-2-22T17:04:10Z
2021-02-22T15:06:09Z,42.805,6.029,13.2987,4.59986,2470.25,2021-2-22T17:07:13Z
2021-02-22T15:09:12Z,42.805,6.029,13.2985,4.59988,2470.24,2021-2-22T17:10:16Z
2021-02-22T15:12:15Z,42.805,6.029,13.2982,4.59987,2470.227,2021-2-22T17:13:20Z
2021-02-22T15:15:18Z,42.805,6.029,13.2983,4.59987,2470.25,2021-2-22T17:16:23Z